| time (UTC) | temp F | wind direction | speed knots | gust knots | rain 1hr in | rain 24hr in | rain mn in | humidity % | barometer mb |
| 20260903065403 | 83 | 182 | 2.6 | 7.0 | 0.00 | 0.00 | 0.00 | 87 | 1012.8 |
| 20260903064903 | 83 | 133 | 0.9 | 5.2 | 0.00 | 0.00 | 0.00 | 87 | 1013.0 |
| 20260903063904 | 83 | 173 | 1.7 | 5.2 | 0.00 | 0.00 | 0.00 | 86 | 1012.9 |
| 20260903063404 | 83 | 159 | 1.7 | 5.2 | 0.00 | 0.00 | 0.00 | 86 | 1013.0 |
| 20260903062904 | 83 | 161 | 1.7 | 5.2 | 0.00 | 0.00 | 0.00 | 86 | 1013.0 |
| 20260903062404 | 83 | 159 | 1.7 | 5.2 | 0.00 | 0.00 | 0.00 | 86 | 1013.1 |
| 20260903061905 | 83 | 155 | 1.7 | 2.6 | 0.00 | 0.00 | 0.00 | 86 | 1013.2 |
| 20260903061404 | 84 | 151 | 0.9 | 2.6 | 0.00 | 0.00 | 0.00 | 85 | 1013.3 |
| 20260903060904 | 84 | 140 | 0.9 | 4.3 | 0.00 | 0.00 | 0.00 | 85 | 1013.3 |
| 20260903060404 | 84 | 165 | 0.9 | 4.3 | 0.00 | 0.00 | 0.00 | 85 | 1013.5 |
| 20260903055905 | 84 | 165 | 0.9 | 1.7 | 0.00 | 0.00 | 0.00 | 85 | 1013.7 |
| 20260903055403 | 84 | 165 | 0.9 | 1.7 | 0.00 | 0.00 | 0.00 | 84 | 1013.7 |
| 20260903054905 | 84 | 165 | 0.9 | 4.3 | 0.00 | 0.00 | 0.00 | 84 | 1013.6 |
| 20260903054405 | 84 | 165 | 1.7 | 4.3 | 0.00 | 0.00 | 0.00 | 84 | 1013.7 |
| 20260903053405 | 84 | 165 | 0.9 | 2.6 | 0.00 | 0.00 | 0.00 | 84 | 1013.5 |
| 20260903052904 | 84 | 158 | 1.7 | 2.6 | 0.00 | 0.00 | 0.00 | 84 | 1013.5 |
| 20260903052404 | 84 | 153 | 0.0 | 4.3 | 0.00 | 0.00 | 0.00 | 84 | 1013.6 |
| 20260903051904 | 84 | 152 | 1.7 | 4.3 | 0.00 | 0.00 | 0.00 | 84 | 1013.6 |
| 20260903051404 | 84 | 128 | 0.9 | 2.6 | 0.00 | 0.00 | 0.00 | 84 | 1013.6 |
| 20260903050405 | 84 | 148 | 1.7 | 4.3 | 0.00 | 0.24 | 0.00 | 83 | 1013.5 |
| 20260903045403 | 84 | 157 | 1.7 | 4.3 | 0.00 | 1.23 | 0.00 | 83 | 1013.6 |
| 20260903044404 | 84 | 145 | 0.0 | 2.6 | 0.00 | 2.22 | 0.00 | 83 | 1013.9 |
| 20260903043904 | 84 | 144 | 0.9 | 4.3 | 0.00 | 2.82 | 0.00 | 83 | 1013.9 |
| 20260903043404 | 85 | 144 | 0.9 | 4.3 | 0.00 | 3.36 | 0.00 | 83 | 1014.0 |
| 20260903042904 | 85 | 137 | 1.7 | 4.3 | 0.00 | 3.75 | 0.00 | 83 | 1013.9 |
| 20260903041404 | 85 | 148 | 1.7 | 5.2 | 0.00 | 5.10 | 0.00 | 83 | 1013.8 |
| 20260903040904 | 85 | 149 | 1.7 | 5.2 | 0.00 | 5.52 | 0.00 | 83 | 1013.9 |
| 20260903035903 | 85 | 140 | 0.9 | 4.3 | 0.00 | 6.51 | 0.00 | 83 | 1014.0 |
| 20260903035404 | 85 | 148 | 1.7 | 4.3 | 0.00 | 6.99 | 0.00 | 82 | 1014.0 |
| 20260903034904 | 85 | 142 | 1.7 | 6.1 | 0.00 | 7.53 | 0.00 | 82 | 1014.0 |
| 20260903034404 | 85 | 138 | 1.7 | 6.1 | 0.00 | 8.13 | 0.00 | 82 | 1013.9 |
| 20260903032904 | 85 | 128 | 1.7 | 6.1 | 0.00 | 9.69 | 0.00 | 82 | 1013.6 |
| 20260903031405 | 85 | 146 | 0.0 | 2.6 | 0.00 | 1.11 | 0.00 | 82 | 1013.8 |
| 20260903030903 | 85 | 145 | 0.9 | 6.1 | 0.00 | 1.17 | 0.00 | 82 | 1013.7 |
| 20260903030403 | 85 | 157 | 1.7 | 6.1 | 0.00 | 1.22 | 0.00 | 83 | 1013.6 |
| 20260903025904 | 85 | 122 | 1.7 | 5.2 | 0.00 | 1.27 | 0.00 | 83 | 1013.4 |
| 20260903025405 | 85 | 148 | 1.7 | 7.0 | 0.00 | 1.33 | 0.00 | 83 | 1013.2 |
| 20260903024904 | 85 | 129 | 4.3 | 7.0 | 0.00 | 1.39 | 0.00 | 83 | 1013.2 |
| 20260903024404 | 85 | 141 | 1.7 | 7.0 | 0.00 | 1.45 | 0.00 | 83 | 1013.0 |
| 20260903023904 | 85 | 157 | 2.6 | 7.0 | 0.00 | 1.51 | 0.00 | 83 | 1013.0 |
| 20260903023405 | 85 | 145 | 2.6 | 7.0 | 0.00 | 1.55 | 0.00 | 83 | 1013.0 |
| 20260903021904 | 85 | 144 | 4.3 | 7.8 | 0.00 | 1.71 | 0.00 | 83 | 1012.6 |
| 20260903021404 | 85 | 127 | 2.6 | 6.1 | 0.00 | 1.76 | 0.00 | 83 | 1012.7 |
| 20260903020404 | 85 | 140 | 2.6 | 7.8 | 0.00 | 1.89 | 0.00 | 83 | 1012.6 |
| 20260903015903 | 86 | 161 | 3.5 | 7.8 | 0.00 | 1.93 | 0.00 | 83 | 1012.6 |
| 20260903015404 | 86 | 150 | 2.6 | 7.0 | 0.00 | 1.99 | 0.00 | 82 | 1012.6 |
| 20260903014904 | 86 | 145 | 2.6 | 7.0 | 0.00 | 2.05 | 0.00 | 82 | 1012.6 |
| 20260903013904 | 86 | 140 | 2.6 | 8.7 | 0.00 | 2.14 | 0.00 | 82 | 1012.6 |
| 20260903013403 | 86 | 155 | 4.3 | 8.7 | 0.00 | 2.19 | 0.00 | 82 | 1012.5 |
| 20260903012904 | 86 | 177 | 5.2 | 10.4 | 0.00 | 2.24 | 0.00 | 81 | 1012.4 |
| 20260903011903 | 86 | 150 | 3.5 | 7.8 | 0.00 | 2.33 | 0.00 | 80 | 1012.5 |
| 20260903011405 | 86 | 169 | 4.3 | 7.8 | 0.00 | 2.38 | 0.00 | 80 | 1012.4 |
| 20260903010904 | 87 | 163 | 2.6 | 7.8 | 0.00 | 2.43 | 0.00 | 80 | 1012.2 |
| 20260903010404 | 87 | 148 | 4.3 | 8.7 | 0.00 | 2.49 | 0.00 | 79 | 1012.1 |
| 20260903005904 | 87 | 159 | 2.6 | 8.7 | 0.00 | 2.54 | 0.00 | 78 | 1012.1 |
| 20260903005404 | 87 | 149 | 2.6 | 7.8 | 0.00 | 2.59 | 0.00 | 78 | 1012.1 |
| 20260903004905 | 87 | 181 | 2.6 | 8.7 | 0.00 | 2.64 | 0.00 | 77 | 1012.1 |
| 20260903004404 | 87 | 158 | 5.2 | 10.4 | 0.00 | 2.70 | 0.00 | 77 | 1012.3 |
| 20260903003904 | 88 | 160 | 2.6 | 10.4 | 0.00 | 2.75 | 0.00 | 76 | 1012.3 |
| 20260903003403 | 88 | 165 | 4.3 | 8.7 | 0.00 | 2.79 | 0.00 | 76 | 1012.3 |
| 20260903002904 | 88 | 169 | 4.3 | 8.7 | 0.00 | 2.83 | 0.00 | 75 | 1012.2 |
| 20260903002405 | 88 | 175 | 5.2 | 8.7 | 0.00 | 2.91 | 0.00 | 74 | 1012.1 |
| 20260903001904 | 89 | 146 | 2.6 | 8.7 | 0.00 | 2.96 | 0.00 | 73 | 1011.8 |
| 20260903001404 | 89 | 166 | 4.3 | 8.7 | 0.00 | 3.01 | 0.00 | 72 | 1011.5 |
| 20260903000405 | 89 | 149 | 2.6 | 11.3 | 0.00 | 3.13 | 0.00 | 71 | 1011.4 |
| 20260902235904 | 90 | 139 | 4.3 | 11.3 | 0.00 | 3.17 | 0.00 | 70 | 1011.4 |
| 20260902235404 | 90 | 161 | 4.3 | 10.4 | 0.00 | 3.24 | 0.00 | 69 | 1011.5 |
| 20260902234904 | 90 | 169 | 5.2 | 12.2 | 0.00 | 3.29 | 0.00 | 68 | 1011.5 |
| 20260902234403 | 90 | 159 | 7.8 | 12.2 | 0.00 | 3.36 | 0.00 | 67 | 1011.6 |
| 20260902233403 | 91 | 150 | 4.3 | 8.7 | 0.00 | 3.48 | 0.00 | 67 | 1011.7 |
| 20260902232904 | 91 | 129 | 4.3 | 12.2 | 0.00 | 3.54 | 0.00 | 66 | 1011.7 |
| 20260902232405 | 92 | 131 | 6.1 | 12.2 | 0.00 | 3.60 | 0.00 | 65 | 1011.6 |
| 20260902231905 | 92 | 134 | 6.1 | 13.0 | 0.00 | 3.65 | 0.00 | 65 | 1011.6 |
| 20260902231404 | 92 | 157 | 4.3 | 13.0 | 0.00 | 3.72 | 0.00 | 65 | 1011.6 |
| 20260902230904 | 93 | 151 | 7.8 | 11.3 | 0.00 | 3.77 | 0.00 | 64 | 1011.5 |
| 20260902230404 | 94 | 164 | 3.5 | 11.3 | 0.00 | 3.81 | 0.00 | 64 | 1011.5 |
| 20260902225903 | 94 | 166 | 6.1 | 12.2 | 0.00 | 3.87 | 0.00 | 63 | 1011.5 |
| 20260902225404 | 94 | 143 | 8.7 | 12.2 | 0.00 | 3.90 | 0.00 | 62 | 1011.4 |
| 20260902224904 | 95 | 142 | 6.1 | 14.8 | 0.00 | 3.95 | 0.00 | 62 | 1011.4 |
| 20260902223904 | 96 | 180 | 6.1 | 13.9 | 0.00 | 4.05 | 0.00 | 59 | 1011.4 |
| 20260902223404 | 96 | 165 | 4.3 | 13.9 | 0.00 | 4.11 | 0.00 | 59 | 1011.4 |
| 20260902222405 | 97 | 200 | 4.3 | 17.4 | 0.00 | 4.23 | 0.00 | 58 | 1011.5 |
| 20260902221905 | 97 | 161 | 5.2 | 17.4 | 0.00 | 4.29 | 0.00 | 58 | 1011.5 |
| 20260902221404 | 97 | 159 | 4.3 | 14.8 | 0.00 | 4.35 | 0.00 | 59 | 1011.5 |
| 20260902220904 | 97 | 167 | 4.3 | 13.0 | 0.00 | 4.40 | 0.00 | 59 | 1011.5 |
| 20260902215904 | 97 | 160 | 7.0 | 13.9 | 0.00 | 4.49 | 0.00 | 61 | 1011.5 |
| 20260902214405 | 95 | 141 | 12.2 | 12.2 | 0.00 | 4.65 | 0.00 | 63 | 1011.5 |
| 20260902213904 | 95 | 152 | 5.2 | 11.3 | 0.00 | 4.69 | 0.00 | 64 | 1011.5 |
| 20260902212904 | 95 | 156 | 6.1 | 11.3 | 0.00 | 4.76 | 0.00 | 63 | 1011.6 |
| 20260902212404 | 95 | 108 | 6.1 | 10.4 | 0.00 | 4.81 | 0.00 | 62 | 1011.6 |
| 20260902211903 | 95 | 158 | 3.5 | 12.2 | 0.00 | 4.84 | 0.00 | 63 | 1011.7 |
| 20260902211404 | 96 | 163 | 5.2 | 12.2 | 0.00 | 4.88 | 0.00 | 62 | 1011.8 |
| 20260902210905 | 96 | 167 | 6.1 | 12.2 | 0.00 | 4.92 | 0.00 | 61 | 1011.9 |
| 20260902210405 | 97 | 128 | 5.2 | 12.2 | 0.00 | 4.95 | 0.00 | 61 | 1011.8 |
| 20260902205404 | 98 | 152 | 5.2 | 12.2 | 0.00 | 5.03 | 0.00 | 58 | 1011.8 |
| 20260902204904 | 98 | 179 | 1.7 | 7.0 | 0.00 | 5.05 | 0.00 | 54 | 1011.8 |
| 20260902204404 | 99 | 149 | 2.6 | 10.4 | 0.00 | 5.07 | 0.00 | 54 | 1011.9 |
| 20260902203904 | 99 | 185 | 2.6 | 10.4 | 0.00 | 5.12 | 0.00 | 54 | 1011.9 |
| 20260902203405 | 100 | 178 | 3.5 | 8.7 | 0.00 | 5.16 | 0.00 | 54 | 1012.1 |
| 20260902202905 | 100 | 117 | 0.9 | 11.3 | 0.00 | 5.19 | 0.00 | 54 | 1012.1 |
| 20260902202404 | 100 | 205 | 4.3 | 11.3 | 0.00 | 5.22 | 0.00 | 53 | 1012.2 |
| 20260902201904 | 100 | 167 | 5.2 | 11.3 | 0.00 | 5.26 | 0.00 | 53 | 1012.2 |
| 20260902201404 | 100 | 196 | 2.6 | 11.3 | 0.00 | 5.29 | 0.00 | 54 | 1012.3 |
| 20260902200904 | 99 | 173 | 4.3 | 11.3 | 0.00 | 5.33 | 0.00 | 54 | 1012.4 |
| 20260902195905 | 99 | 180 | 2.6 | 7.8 | 0.00 | 5.41 | 0.00 | 55 | 1012.6 |
| 20260902195404 | 98 | 156 | 3.5 | 7.0 | 0.00 | 5.42 | 0.00 | 56 | 1012.7 |
| 20260902194904 | 98 | 200 | 3.5 | 7.0 | 0.00 | 5.46 | 0.00 | 54 | 1012.7 |
| 20260902194404 | 98 | 191 | 2.6 | 7.0 | 0.00 | 5.50 | 0.00 | 57 | 1012.8 |
| 20260902193403 | 98 | 197 | 1.7 | 6.1 | 0.00 | 5.57 | 0.00 | 57 | 1012.8 |
| 20260902192904 | 97 | 211 | 0.9 | 7.8 | 0.00 | 5.60 | 0.00 | 58 | 1012.9 |
| 20260902192405 | 97 | 229 | 1.7 | 7.8 | 0.00 | 5.62 | 0.00 | 58 | 1012.9 |
| 20260902191904 | 97 | 193 | 3.5 | 6.1 | 0.00 | 5.65 | 0.00 | 56 | 1012.9 |
| 20260902191405 | 96 | 208 | 2.6 | 10.4 | 0.00 | 5.67 | 0.00 | 57 | 1012.9 |
| 20260902190904 | 96 | 203 | 3.5 | 10.4 | 0.00 | 5.69 | 0.00 | 57 | 1013.0 |
| 20260902190404 | 97 | 327 | 1.7 | 6.1 | 0.00 | 5.71 | 0.00 | 57 | 1013.0 |
| 20260902185904 | 97 | 236 | 1.7 | 7.0 | 0.00 | 5.73 | 0.00 | 57 | 1013.1 |
| 20260902185405 | 97 | 208 | 1.7 | 7.0 | 0.00 | 5.75 | 0.00 | 56 | 1013.1 |
| 20260902184905 | 98 | 201 | 1.7 | 7.8 | 0.00 | 5.77 | 0.00 | 58 | 1013.2 |
| 20260902184405 | 98 | 223 | 4.3 | 7.8 | 0.00 | 5.78 | 0.00 | 57 | 1013.3 |
| 20260902183903 | 98 | 214 | 2.6 | 7.8 | 0.00 | 5.81 | 0.00 | 57 | 1013.3 |
| 20260902183405 | 98 | 186 | 4.3 | 7.8 | 0.00 | 5.82 | 0.00 | 56 | 1013.4 |
| 20260902182904 | 98 | 240 | 0.9 | 6.1 | 0.00 | 5.82 | 0.00 | 57 | 1013.5 |
| 20260902182405 | 98 | 274 | 1.7 | 7.0 | 0.00 | 5.82 | 0.00 | 57 | 1013.5 |
| 20260902181905 | 98 | 184 | 2.6 | 7.0 | 0.00 | 5.82 | 0.00 | 58 | 1013.6 |
| 20260902181404 | 97 | 196 | 2.6 | 7.0 | 0.00 | 5.82 | 0.00 | 60 | 1013.7 |
| 20260902180904 | 97 | 180 | 2.6 | 7.0 | 0.00 | 5.82 | 0.00 | 63 | 1013.8 |
| 20260902180404 | 96 | 211 | 0.9 | 7.0 | 0.00 | 5.82 | 0.00 | 64 | 1013.9 |
| 20260902175403 | 95 | 197 | 1.7 | 7.0 | 0.00 | 5.82 | 0.00 | 66 | 1014.1 |
| 20260902174904 | 94 | 251 | 1.7 | 7.0 | 0.00 | 5.82 | 0.00 | 66 | 1014.2 |
| 20260902174404 | 94 | 223 | 1.7 | 5.2 | 0.00 | 5.82 | 0.00 | 67 | 1014.3 |
| 20260902173404 | 93 | 214 | 2.6 | 6.1 | 0.00 | 5.82 | 0.00 | 68 | 1014.4 |
| 20260902172904 | 93 | 238 | 0.9 | 5.2 | 0.00 | 5.82 | 0.00 | 70 | 1014.5 |
| 20260902171905 | 92 | 223 | 2.6 | 4.3 | 0.00 | 5.82 | 0.00 | 70 | 1014.6 |
| 20260902171404 | 92 | 209 | 1.7 | 4.3 | 0.00 | 5.82 | 0.00 | 71 | 1014.5 |
| 20260902170904 | 92 | 210 | 0.9 | 5.2 | 0.00 | 5.82 | 0.00 | 71 | 1014.7 |
| 20260902170404 | 92 | 239 | 1.7 | 8.7 | 0.00 | 5.82 | 0.00 | 72 | 1014.7 |
| 20260902165905 | 91 | 209 | 2.6 | 10.4 | 0.00 | 5.82 | 0.00 | 70 | 1014.8 |
| 20260902165404 | 91 | 232 | 2.6 | 10.4 | 0.00 | 5.82 | 0.00 | 71 | 1014.9 |
| 20260902163904 | 90 | 277 | 2.6 | 7.0 | 0.00 | 5.82 | 0.00 | 73 | 1015.1 |
| 20260902163404 | 90 | 257 | 3.5 | 7.0 | 0.00 | 5.82 | 0.00 | 73 | 1015.1 |
| 20260902162405 | 90 | 252 | 2.6 | 7.0 | 0.00 | 5.82 | 0.00 | 75 | 1015.1 |
| 20260902161905 | 90 | 192 | 1.7 | 7.0 | 0.00 | 5.82 | 0.00 | 76 | 1015.1 |
| 20260902161404 | 90 | 207 | 4.3 | 7.0 | 0.00 | 5.82 | 0.00 | 76 | 1015.1 |
| 20260902160904 | 89 | 262 | 1.7 | 7.8 | 0.00 | 5.82 | 0.00 | 77 | 1015.1 |
| 20260902160404 | 89 | 225 | 1.7 | 8.7 | 0.00 | 5.82 | 0.00 | 77 | 1015.1 |
| 20260902155404 | 89 | 217 | 1.7 | 4.3 | 0.00 | 5.82 | 0.00 | 78 | 1015.1 |
| 20260902154904 | 89 | 219 | 2.6 | 10.4 | 0.00 | 5.82 | 0.00 | 80 | 1015.0 |
| 20260902154404 | 89 | 240 | 2.6 | 10.4 | 0.00 | 5.82 | 0.00 | 79 | 1014.9 |
| 20260902153903 | 88 | 211 | 1.7 | 8.7 | 0.00 | 5.82 | 0.00 | 81 | 1014.8 |
| 20260902153404 | 87 | 254 | 0.9 | 5.2 | 0.00 | 5.82 | 0.00 | 83 | 1014.8 |
| 20260902152904 | 87 | 233 | 1.7 | 5.2 | 0.00 | 5.82 | 0.00 | 84 | 1014.9 |
| 20260902151905 | 86 | 237 | 2.6 | 5.2 | 0.00 | 5.82 | 0.00 | 85 | 1014.8 |
| 20260902151405 | 85 | 225 | 1.7 | 7.0 | 0.00 | 5.82 | 0.00 | 86 | 1014.8 |
| 20260902150905 | 85 | 187 | 1.7 | 7.0 | 0.00 | 5.82 | 0.00 | 86 | 1014.8 |
| 20260902150404 | 85 | 208 | 0.9 | 5.2 | 0.00 | 5.82 | 0.00 | 87 | 1014.7 |
| 20260902145904 | 84 | 232 | 0.9 | 5.2 | 0.00 | 5.82 | 0.00 | 87 | 1014.7 |
| 20260902145404 | 84 | 215 | 0.9 | 4.3 | 0.00 | 5.82 | 0.00 | 87 | 1014.7 |
| 20260902144904 | 84 | 189 | 1.7 | 4.3 | 0.00 | 5.82 | 0.00 | 87 | 1014.7 |
| 20260902142905 | 82 | 202 | 0.0 | 0.0 | 0.00 | 5.82 | 0.00 | 87 | 1014.5 |
| 20260902142404 | 82 | 202 | 0.0 | 0.0 | 0.00 | 5.82 | 0.00 | 87 | 1014.5 |
| 20260902141903 | 82 | 202 | 0.0 | 0.9 | 0.00 | 5.82 | 0.00 | 87 | 1014.5 |
| 20260902141403 | 82 | 202 | 0.0 | 1.7 | 0.00 | 5.82 | 0.00 | 87 | 1014.6 |
| 20260902140904 | 82 | 201 | 0.0 | 2.6 | 0.00 | 5.82 | 0.00 | 87 | 1014.5 |
| 20260902140404 | 81 | 200 | 1.7 | 2.6 | 0.00 | 5.82 | 0.00 | 87 | 1014.6 |
| 20260902135905 | 81 | 196 | 0.0 | 2.6 | 0.00 | 5.82 | 0.00 | 87 | 1014.6 |
| 20260902135405 | 81 | 194 | 0.0 | 0.0 | 0.00 | 5.82 | 0.00 | 87 | 1014.6 |
| 20260902134903 | 81 | 194 | 0.0 | 0.0 | 0.00 | 5.82 | 0.00 | 87 | 1014.6 |
| 20260902134404 | 81 | 194 | 0.0 | 0.0 | 0.00 | 5.82 | 0.00 | 87 | 1014.6 |
| 20260902133905 | 81 | 194 | 0.0 | 2.6 | 0.00 | 5.82 | 0.00 | 87 | 1014.6 |
| 20260902133403 | 80 | 194 | 0.0 | 2.6 | 0.00 | 5.82 | 0.00 | 87 | 1014.5 |
| 20260902132904 | 80 | 194 | 0.9 | 2.6 | 0.00 | 5.82 | 0.00 | 87 | 1014.6 |
| 20260902132404 | 80 | 192 | 0.0 | 0.0 | 0.00 | 5.82 | 0.00 | 87 | 1014.6 |
| 20260902131905 | 80 | 192 | 0.0 | 2.6 | 0.00 | 5.82 | 0.00 | 87 | 1014.5 |
| 20260902131404 | 80 | 192 | 0.0 | 2.6 | 0.00 | 5.82 | 0.00 | 87 | 1014.5 |
| 20260902130904 | 80 | 190 | 0.9 | 2.6 | 0.00 | 5.82 | 0.00 | 87 | 1014.3 |
| 20260902130404 | 80 | 201 | 0.0 | 4.3 | 0.00 | 5.82 | 0.00 | 87 | 1014.1 |
| 20260902125904 | 80 | 213 | 0.9 | 4.3 | 0.00 | 5.82 | 0.00 | 87 | 1014.0 |
| 20260902125404 | 80 | 200 | 0.9 | 5.2 | 0.00 | 5.82 | 0.00 | 87 | 1014.1 |
| 20260902124404 | 80 | 172 | 1.7 | 5.2 | 0.00 | 5.82 | 0.00 | 87 | 1014.0 |
| 20260902122903 | 80 | 185 | 0.9 | 5.2 | 0.00 | 5.82 | 0.00 | 88 | 1013.8 |
| 20260902122404 | 80 | 201 | 1.7 | 5.2 | 0.00 | 5.82 | 0.00 | 89 | 1013.6 |
| 20260902121904 | 80 | 192 | 0.9 | 10.4 | 0.00 | 5.82 | 0.00 | 90 | 1013.6 |
| 20260902120904 | 80 | 172 | 5.2 | 10.4 | 0.00 | 5.82 | 0.00 | 91 | 1013.5 |
| 20260902115904 | 80 | 169 | 1.7 | 7.0 | 0.00 | 5.82 | 0.00 | 92 | 1013.6 |
| 20260902115404 | 80 | 192 | 4.3 | 7.0 | 0.00 | 5.82 | 0.00 | 92 | 1013.5 |
| 20260902114904 | 80 | 218 | 1.7 | 2.6 | 0.00 | 5.82 | 0.00 | 92 | 1013.2 |
| 20260902114405 | 80 | 218 | 0.9 | 2.6 | 0.00 | 5.82 | 0.00 | 92 | 1013.3 |
| 20260902113903 | 80 | 218 | 0.0 | 1.7 | 0.00 | 5.82 | 0.00 | 92 | 1013.3 |
| 20260902113403 | 80 | 218 | 0.9 | 2.6 | 0.00 | 5.82 | 0.00 | 92 | 1013.2 |
| 20260902112404 | 80 | 221 | 0.0 | 5.2 | 0.00 | 5.82 | 0.00 | 92 | 1013.2 |
| 20260902111904 | 80 | 192 | 0.9 | 4.3 | 0.00 | 5.82 | 0.00 | 91 | 1013.2 |
| 20260902111404 | 80 | 187 | 0.9 | 4.3 | 0.00 | 5.82 | 0.00 | 91 | 1013.1 |
| 20260902110904 | 80 | 186 | 0.9 | 6.1 | 0.00 | 5.82 | 0.00 | 91 | 1013.1 |
| 20260902110404 | 80 | 204 | 1.7 | 6.1 | 0.00 | 5.82 | 0.00 | 91 | 1013.0 |
| 20260902105903 | 80 | 209 | 2.6 | 4.3 | 0.00 | 5.82 | 0.00 | 91 | 1013.0 |
| 20260902105404 | 80 | 211 | 0.9 | 4.3 | 0.00 | 5.82 | 0.00 | 91 | 1013.1 |
| 20260902104905 | 80 | 190 | 0.9 | 2.6 | 0.00 | 5.82 | 0.00 | 91 | 1013.1 |
| 20260902104405 | 80 | 186 | 0.9 | 2.6 | 0.00 | 5.82 | 0.00 | 91 | 1013.0 |
| 20260902103903 | 80 | 184 | 0.9 | 1.7 | 0.00 | 5.82 | 0.00 | 91 | 1013.2 |
| 20260902103404 | 80 | 190 | 0.0 | 1.7 | 0.00 | 5.82 | 0.00 | 91 | 1013.2 |
| 20260902102904 | 80 | 190 | 0.0 | 2.6 | 0.00 | 5.82 | 0.00 | 91 | 1013.2 |
| 20260902102404 | 80 | 190 | 0.9 | 4.3 | 0.00 | 5.82 | 0.00 | 91 | 1013.1 |
| 20260902101904 | 80 | 190 | 1.7 | 4.3 | 0.00 | 5.82 | 0.00 | 91 | 1013.1 |
| 20260902101404 | 80 | 207 | 0.9 | 5.2 | 0.00 | 5.82 | 0.00 | 91 | 1013.1 |
| 20260902100904 | 80 | 186 | 0.9 | 5.2 | 0.00 | 5.82 | 0.00 | 91 | 1013.0 |
| 20260902100405 | 80 | 201 | 1.7 | 5.2 | 0.00 | 5.82 | 0.00 | 91 | 1012.9 |
| 20260902095904 | 80 | 185 | 0.9 | 5.2 | 0.00 | 5.82 | 0.00 | 91 | 1012.8 |
| 20260902094904 | 80 | 203 | 2.6 | 5.2 | 0.00 | 5.82 | 0.00 | 91 | 1012.8 |
| 20260902094403 | 80 | 174 | 1.7 | 2.6 | 0.00 | 5.82 | 0.00 | 91 | 1012.9 |
| 20260902093904 | 80 | 175 | 0.9 | 2.6 | 0.00 | 5.82 | 0.00 | 91 | 1012.9 |
| 20260902093404 | 80 | 198 | 0.9 | 2.6 | 0.00 | 5.82 | 0.00 | 91 | 1013.0 |
| 20260902092904 | 80 | 183 | 0.9 | 4.3 | 0.00 | 5.82 | 0.00 | 91 | 1012.9 |
| 20260902091903 | 80 | 210 | 2.6 | 5.2 | 0.00 | 5.82 | 0.00 | 91 | 1012.8 |
| 20260902091404 | 80 | 208 | 0.9 | 5.2 | 0.00 | 5.82 | 0.00 | 90 | 1012.8 |
| 20260902090404 | 80 | 195 | 0.9 | 4.3 | 0.00 | 5.82 | 0.00 | 90 | 1012.6 |
| 20260902085904 | 80 | 217 | 0.9 | 4.3 | 0.00 | 5.82 | 0.00 | 90 | 1012.6 |
| 20260902084904 | 80 | 179 | 0.0 | 6.1 | 0.00 | 5.82 | 0.00 | 90 | 1012.7 |
| 20260902084404 | 80 | 212 | 0.9 | 6.1 | 0.00 | 5.82 | 0.00 | 90 | 1012.7 |
| 20260902083903 | 80 | 214 | 1.7 | 4.3 | 0.00 | 5.82 | 0.00 | 90 | 1012.7 |
| 20260902083405 | 80 | 180 | 1.7 | 4.3 | 0.00 | 5.82 | 0.00 | 90 | 1012.8 |
| 20260902082405 | 80 | 213 | 1.7 | 4.3 | 0.00 | 5.82 | 0.00 | 90 | 1012.7 |
| 20260902081903 | 80 | 234 | 0.9 | 4.3 | 0.00 | 5.82 | 0.00 | 90 | 1012.7 |
| 20260902081404 | 80 | 212 | 0.9 | 5.2 | 0.00 | 5.82 | 0.00 | 90 | 1012.8 |
| 20260902080904 | 80 | 214 | 1.7 | 5.2 | 0.00 | 5.82 | 0.00 | 90 | 1012.9 |
| 20260902080405 | 80 | 216 | 1.7 | 6.1 | 0.00 | 5.82 | 0.00 | 90 | 1013.0 |
| 20260902075904 | 80 | 212 | 1.7 | 6.1 | 0.00 | 5.82 | 0.00 | 90 | 1013.1 |
| 20260902075404 | 80 | 249 | 0.0 | 5.2 | 0.00 | 5.82 | 0.00 | 90 | 1013.0 |
| 20260902074903 | 81 | 249 | 0.0 | 5.2 | 0.00 | 5.82 | 0.00 | 90 | 1012.9 |
| 20260902074404 | 81 | 183 | 0.9 | 4.3 | 0.00 | 5.82 | 0.00 | 90 | 1013.0 |
| 20260902073904 | 81 | 192 | 0.0 | 7.0 | 0.00 | 5.82 | 0.00 | 90 | 1012.9 |
| 20260902073403 | 81 | 217 | 2.6 | 7.0 | 0.00 | 5.82 | 0.00 | 89 | 1012.9 |
| 20260902072904 | 81 | 172 | 2.6 | 7.0 | 0.00 | 5.82 | 0.00 | 89 | 1012.9 |
| 20260902072404 | 81 | 184 | 1.7 | 5.2 | 0.00 | 5.82 | 0.00 | 89 | 1012.9 |
| 20260902071903 | 81 | 233 | 0.9 | 5.2 | 0.00 | 5.82 | 0.00 | 89 | 1013.0 |
| 20260902071404 | 81 | 198 | 1.7 | 5.2 | 0.00 | 5.82 | 0.00 | 89 | 1013.1 |
| 20260902070404 | 81 | 213 | 0.9 | 2.6 | 0.00 | 5.82 | 0.00 | 89 | 1013.0 |